Location: Ipswich
(52.0579°N, 1.1528°E)
Time: 20:39:06
(UTC+01:00)

ISS - Pass Details

Date: 17 May 2026
Orbit: 414 x 424 km, 51.6° (Epoch: 15 May)

Event Time Altitude Azimuth Distance (km) Brightness Sun altitude
Rises 22:21:13 0° 279° (W) 2,354 0.8 -11.3°
Reaches altitude 10° 22:23:19 10° 277° (W) 1,491 -0.3 -11.5°
Maximum altitude 22:26:38 65° 195° (SSW) 462 -3.8 -11.8°
Enters shadow 22:29:02 17° 116° (ESE) 1,126 -2.1 -12.0°
